Location: Unspecified
(43.4354°N, 0.0000°E)
Time: 21:18:40
(UTC+00:00)

Explorer 7 - All Passes

Search period start: 17 June 2019 00:00
Search period end: 27 June 2019 00:00
Orbit: 485 x 680 km, 50.3° (Epoch: 17 June)

Date Brightness Start Highest point End Pass type
(mag) Time Alt. Az. Time Alt. Az. Time Alt. Az.
17 Jun - 09:56:12 10° SSW 10:00:18 38° SE 10:04:39 10° ENE daylight
17 Jun - 11:36:17 10° WSW 11:40:49 59° NNW 11:45:35 10° ENE daylight
17 Jun - 13:17:42 10° WNW 13:22:06 36° N 13:26:37 10° ENE daylight
17 Jun - 14:58:42 10° WNW 15:03:27 51° NNE 15:08:16 10° E daylight
17 Jun - 16:39:24 10° WNW 16:44:12 54° SW 16:48:58 10° SE daylight
17 Jun - 18:22:48 10° WSW 18:24:00 11° SW 18:25:12 10° SW daylight
18 Jun - 08:24:31 10° SE 08:25:32 11° SE 08:26:34 10° ESE daylight
18 Jun - 10:00:55 10° SW 10:05:15 58° SE 10:09:53 10° ENE daylight
18 Jun - 11:41:35 10° W 11:46:02 47° NNW 11:50:42 10° ENE daylight
18 Jun - 13:22:59 10° WNW 13:27:24 36° N 13:31:56 10° ENE daylight
18 Jun - 15:03:48 10° WNW 15:08:38 65° NNE 15:13:32 10° ESE daylight
18 Jun - 16:44:40 10° WNW 16:49:09 36° SW 16:53:37 10° SSE daylight
19 Jun - 08:27:21 10° S 08:30:17 18° SE 08:33:20 10° E daylight
19 Jun - 10:05:51 10° WSW 10:10:17 85° SSE 10:15:02 10° ENE daylight
19 Jun - 11:46:56 10° W 11:51:17 40° N 11:55:50 10° ENE daylight
19 Jun - 13:28:12 10° WNW 13:32:42 39° N 13:37:18 10° E daylight
19 Jun - 15:08:53 10° WNW 15:13:46 85° NNE 15:18:43 10° ESE daylight
19 Jun - 16:50:08 10° W 16:54:02 24° SW 16:57:55 10° S daylight
20 Jun - 08:31:26 10° SSW 08:35:06 28° SE 08:38:59 10° ENE daylight
20 Jun - 10:10:58 10° WSW 10:15:24 70° NNW 10:20:08 10° ENE daylight
20 Jun - 11:52:17 10° WNW 11:56:35 36° N 12:01:03 10° ENE daylight
20 Jun - 13:33:22 10° WNW 13:37:57 45° NNE 13:42:40 10° E daylight
20 Jun - 15:14:00 10° WNW 15:18:50 69° SW 15:23:44 10° SE daylight
20 Jun - 16:56:01 10° W 16:58:50 15° SW 17:01:40 10° SSW daylight
21 Jun - 08:35:56 10° SSW 08:40:00 43° SE 08:44:20 10° ENE daylight
21 Jun - 10:16:13 10° W 10:20:35 53° NNW 10:25:13 10° ENE daylight
21 Jun - 11:57:36 10° WNW 12:01:52 35° N 12:06:19 10° ENE daylight
21 Jun - 13:38:29 10° WNW 13:43:10 54° NNE 13:48:00 10° E daylight
21 Jun - 15:19:11 10° WNW 15:23:51 47° SW 15:28:33 10° SE daylight
22 Jun - 07:03:29 10° SSE 07:05:12 12° SE 07:06:56 10° ESE daylight
22 Jun - 08:40:44 10° SW 08:44:58 66° SE 08:49:32 10° ENE daylight
22 Jun - 10:21:32 10° W 10:25:48 43° NNW 10:30:20 10° ENE daylight
22 Jun - 12:02:51 10° WNW 12:07:10 36° N 12:11:39 10° ENE daylight
22 Jun - 13:43:34 10° WNW 13:48:20 70° NNE 13:53:15 10° ESE daylight
22 Jun - 15:24:29 10° WNW 15:28:46 31° SW 15:33:05 10° SSE daylight
23 Jun - 07:06:53 10° S 07:09:58 20° SE 07:13:10 10° E daylight
23 Jun - 08:45:44 10° WSW 08:50:03 86° NNW 08:54:40 10° ENE daylight
23 Jun - 10:26:53 10° WNW 10:31:04 37° N 10:35:30 10° ENE daylight
23 Jun - 12:08:03 10° WNW 12:12:27 40° NNE 12:17:01 10° E daylight
23 Jun - 13:48:39 10° WNW 13:53:27 86° SW 13:58:23 10° ESE daylight
23 Jun - 15:30:03 10° W 15:33:38 21° SW 15:37:15 10° S daylight
24 Jun - 07:11:07 10° SSW 07:14:48 31° SE 07:18:44 10° ENE daylight
24 Jun - 08:50:54 10° WSW 08:55:10 63° NNW 08:59:45 10° ENE daylight
24 Jun - 10:32:13 10° WNW 10:36:21 35° N 10:40:43 10° ENE daylight
24 Jun - 12:13:11 10° WNW 12:17:42 47° NNE 12:22:23 10° E daylight
24 Jun - 13:53:47 10° WNW 13:58:29 61° SW 14:03:20 10° SE daylight
24 Jun - 15:36:15 10° WSW 15:38:26 13° SW 15:40:39 10° SSW daylight
25 Jun - 07:15:43 10° SW 07:19:44 49° SE 07:24:01 10° ENE daylight
25 Jun - 08:56:10 10° W 09:00:22 48° NNW 09:04:50 10° ENE daylight
25 Jun - 10:37:31 10° WNW 10:41:40 34° N 10:46:01 10° ENE daylight
25 Jun - 12:18:16 10° WNW 12:22:54 58° NNE 12:27:42 10° ESE daylight
25 Jun - 13:58:59 10° WNW 14:03:29 41° SW 14:08:04 10° SSE daylight
26 Jun - 05:42:46 10° SSE 05:44:52 14° SE 05:47:02 10° E daylight
26 Jun - 07:20:35 10° SW 07:24:44 75° SSE 07:29:11 10° ENE daylight
26 Jun - 09:01:30 10° W 09:05:36 40° NNW 09:09:58 10° ENE daylight
26 Jun - 10:42:44 10° WNW 10:46:57 36° N 10:51:22 10° ENE daylight
26 Jun - 12:23:21 10° WNW 12:28:02 77° NNE 12:32:55 10° ESE daylight
26 Jun - 14:04:22 10° WNW 14:08:23 27° SW 14:12:30 10° SSE daylight
